Hourly Data Report for September 19, 2017

All times are specified in Local Standard Time (LST). Add 1 hour to adjust for Daylight Saving Time where and when it is observed.

POINT LEPREAU CS
NEW BRUNSWICK

45°04'23.040" N
66°26'57.090" W
6.00 m
8104201
71699
WPE

Download Data

Hourly Data (September 2017)
Hourly Data Report for September 19, 2017
Temp Definition
°C
Dew Point Temp Definition
°C
Rel Hum Definition
%
Wind Dir Definition
10's deg

Wind Spd Definition
km/h
Visibility Definition
km
Stn Press Definition
kPa
Hmdx Definition


Wind Chill Definition


Weather Definition


TIME
00:00 14.9 LegendMM 100 9 5   102.35     LegendNANA
01:00 15.1 LegendMM 100 4 4   102.31     LegendNANA
02:00 14.9 LegendMM 100 6 5   102.27     LegendNANA
03:00 15.2 LegendMM 100 3 7   102.26     LegendNANA
04:00 15.7 LegendMM 100 5 10   102.25     LegendNANA
05:00 15.5 LegendMM 100 5 13   102.25     LegendNANA
06:00 15.4 LegendMM 100 6 11   102.25     LegendNANA
07:00 15.7 LegendMM 100 6 12   102.24     LegendNANA
08:00 15.6 LegendMM 100 5 13   102.26     LegendNANA
09:00 16.3 16.3 100 5 13   102.28     LegendNANA
10:00 17.1 16.8 98 6 11   102.28     LegendNANA
11:00 17.7 17.0 96 8 11   102.26     LegendNANA
12:00 17.9 16.8 94 7 11   102.24     LegendNANA
13:00 17.7 16.8 95 7 12   102.17     LegendNANA
14:00 17.8 16.8 94 7 13   102.11     LegendNANA
15:00 17.7 16.8 94 7 13   102.05     LegendNANA
16:00 17.5 16.8 96 7 11   102.00     LegendNANA
17:00 17.2 16.7 97 6 12   101.97     LegendNANA
18:00 17.6 17.2 97 6 11   101.95     LegendNANA
19:00 17.9 17.5 97 5 8   101.95     LegendNANA
20:00 18.8 18.3 97 5 8   101.95     LegendNANA
21:00 18.7 18.2 97 6 9   101.92     LegendNANA
22:00 19.0 18.6 98 5 12   101.94     LegendNANA
23:00 18.3 18.1 99 6 11   101.90     LegendNANA

Notes on Data Quality.

Legend

  • E = Estimated
  • M = Missing
  • NA = Not Available
  • ‡ = Partner data that is not subject to review by the National Climate Archives
Date modified: